TimeEDT,TemperatureF,Dew PointF,Humidity,Sea Level PressureIn,VisibilityMPH,Wind Direction,Wind SpeedMPH,Gust SpeedMPH,PrecipitationIn,Events,Conditions,WindDirDegrees,DateUTC
12:58 AM,73.2,70.3,91,29.94,10.0,Calm,Calm,-,N/A,,Clear,0,2014-06-10 04:58:00
1:58 AM,73.2,69.3,87,29.93,10.0,West,2.3,-,N/A,,Clear,270,2014-06-10 05:58:00
2:58 AM,70.0,69.8,99,29.93,10.0,East,2.3,-,N/A,,Clear,90,2014-06-10 06:58:00
3:58 AM,69.4,69.4,100,29.93,10.0,ENE,1.2,-,N/A,,Clear,60,2014-06-10 07:58:00
4:58 AM,69.4,69.4,100,29.94,10.0,Calm,Calm,-,N/A,,Clear,0,2014-06-10 08:58:00
5:58 AM,69.1,69.1,100,29.95,5.0,Calm,Calm,-,N/A,,Partly Cloudy,0,2014-06-10 09:58:00
6:58 AM,69.8,69.8,100,29.94,7.0,ESE,5.8,-,N/A,,Scattered Clouds,110,2014-06-10 10:58:00
7:58 AM,73.8,73.4,99,29.96,7.0,Variable,1.2,-,N/A,,Scattered Clouds,0,2014-06-10 11:58:00
8:58 AM,79.2,73.4,82,29.97,10.0,WSW,5.8,-,N/A,,Partly Cloudy,240,2014-06-10 12:58:00
9:58 AM,82.9,72.1,70,29.97,10.0,Variable,4.6,-,N/A,,Partly Cloudy,0,2014-06-10 13:58:00
10:58 AM,86.4,71.2,61,29.98,10.0,NNW,5.8,-,N/A,,Partly Cloudy,340,2014-06-10 14:58:00
11:58 AM,88.7,71.4,56,29.98,10.0,Variable,4.6,-,N/A,,Partly Cloudy,0,2014-06-10 15:58:00
12:58 PM,89.4,71.4,55,29.96,10.0,South,8.1,-,N/A,,Scattered Clouds,190,2014-06-10 16:58:00
1:58 PM,91.2,72.7,54,29.95,10.0,SE,5.8,-,N/A,,Scattered Clouds,130,2014-06-10 17:58:00
2:58 PM,91.8,72.5,53,29.94,10.0,SSE,6.9,-,N/A,,Scattered Clouds,160,2014-06-10 18:58:00
3:58 PM,91.6,71.6,52,29.92,10.0,South,10.4,-,N/A,,Scattered Clouds,170,2014-06-10 19:58:00
4:58 PM,93.0,70.3,47,29.91,10.0,South,10.4,-,N/A,,Scattered Clouds,170,2014-06-10 20:58:00
5:58 PM,91.9,70.0,48,29.91,10.0,SSE,9.2,-,N/A,,Partly Cloudy,160,2014-06-10 21:58:00
6:58 PM,90.5,70.9,52,29.90,10.0,South,6.9,-,N/A,,Partly Cloudy,170,2014-06-10 22:58:00
7:58 PM,87.4,72.0,60,29.91,10.0,SSE,5.8,-,N/A,,Partly Cloudy,160,2014-06-10 23:58:00
8:58 PM,82.9,71.2,68,29.92,10.0,SSE,4.6,-,N/A,,Partly Cloudy,160,2014-06-11 00:58:00
9:58 PM,81.3,71.2,71,29.94,10.0,SSE,5.8,-,N/A,,Clear,160,2014-06-11 01:58:00
10:58 PM,79.0,71.8,78,29.95,10.0,SSE,8.1,-,N/A,,Clear,160,2014-06-11 02:58:00
11:58 PM,80.2,73.4,80,29.95,10.0,South,9.2,-,N/A,,Partly Cloudy,170,2014-06-11 03:58:00